Observations for Trim Market St
| Time | AQI | Temp °C | Hum % | Pres Pa | CO μg/m³ | H₂S μg/m³ | NO μg/m³ | NO₂ μg/m³ | O₃ μg/m³ | SO₂ μg/m³ | PM1 μg/m³ | PM2.5 μg/m³ | PM10 μg/m³ |
|---|---|---|---|---|---|---|---|---|---|---|---|---|---|
| Tuesday 11 August 2026 | |||||||||||||
| 18:41 | 3 | 31.1 | 27 | 66,315 | 0 | 20.91 | 0.48 | 32.3 | 61.79 | 0 | 2.85 | 5.64 | 6.64 |
| 18:40 | 3 | 31.1 | 27 | 66,325 | 0 | 21.67 | 0.49 | 32.1 | 62.7 | 0 | 2.14 | 5.1 | 5.61 |
| 18:39 | 3 | 31.1 | 26 | 66,307 | 0 | 21.5 | 0.48 | 30.16 | 62.29 | 0 | 1.43 | 5.65 | 6.22 |
| 18:38 | 3 | 31.2 | 26 | 66,311 | 0 | 23.27 | 0.5 | 35.67 | 61.24 | 0 | 1.43 | 5.11 | 5.62 |
| 18:37 | 3 | 31.3 | 26 | 66,319 | 0 | 18.51 | 0.5 | 29.04 | 65.07 | 0 | 1.43 | 5.12 | 5.63 |
| 18:36 | 3 | 31.3 | 26 | 66,331 | 0 | 16.58 | 0.49 | 25.71 | 66.58 | 0 | 1.43 | 4.57 | 5.03 |
| 18:34 | 3 | 31.4 | 26 | 66,345 | 0 | 20.71 | 0.47 | 26.88 | 63.72 | 0 | 2.14 | 6.22 | 6.85 |
| 18:32 | 3 | 31.5 | 26 | 66,353 | 0 | 19.6 | 0.47 | 23.82 | 65.39 | 0 | 2.14 | 6.24 | 6.63 |
| 18:30 | 3 | 31.6 | 26 | 66,374 | 0 | 17.42 | 0.48 | 23.37 | 64.12 | 0 | 2.85 | 6.25 | 6.87 |
| 18:29 | 3 | 31.7 | 26 | 66,368 | 0 | 17.87 | 0.47 | 30.28 | 60.34 | 0 | 2.85 | 5.7 | 6.27 |
| 18:18 | 3 | 32.3 | 25 | 66,414 | 0 | 26.66 | 0.38 | 36.04 | 68.83 | 1.09 | 0.71 | 3.54 | 3.89 |
| 18:17 | 3 | 32.3 | 24 | 66,410 | 0 | 22.84 | 0.38 | 25.42 | 66.93 | 1.07 | 1.43 | 4.65 | 5.11 |
| 18:16 | 3 | 32.4 | 24 | 66,412 | 0 | 25.71 | 0.37 | 32.3 | 64.93 | 0.98 | 2.14 | 5.2 | 5.73 |
| 18:15 | 3 | 32.5 | 24 | 66,410 | 0 | 23.34 | 0.36 | 27.05 | 63 | 1.02 | 0.71 | 4.66 | 5.12 |
| 18:13 | 3 | 32.6 | 24 | 66,396 | 0 | 25.22 | 0.37 | 27.35 | 67.59 | 1.52 | 0.71 | 5.22 | 5.74 |
| 18:12 | 3 | 32.6 | 24 | 66,416 | 0 | 26.67 | 0.4 | 39.94 | 63.06 | 1.07 | 0.71 | 4.68 | 5.15 |
| 18:09 | 3 | 32.8 | 23 | 66,439 | 0 | 22.89 | 0.41 | 24.37 | 59.24 | 1.39 | 3.56 | 8.56 | 11.14 |
| 18:08 | 3 | 32.9 | 23 | 66,445 | 0 | 26.84 | 0.41 | 36.34 | 63.21 | 1.69 | 1.43 | 5.25 | 5.78 |
| 18:07 | 3 | 32.9 | 23 | 66,445 | 0 | 21.7 | 0.4 | 32.11 | 52.8 | 1.32 | 2.14 | 5.26 | 5.79 |
| 18:06 | 3 | 33 | 23 | 66,451 | 0 | 27.35 | 0.44 | 42.88 | 56.48 | 1.49 | 1.43 | 5.26 | 5.79 |